Winter Haven, FL

4:20 PM EDT on April 20, 2018 (GMT -0400)
Winter Haven's-Gilbert

Weather History for KGIF - June, 2013

Change the Weather History Date:

Saturday, June 15, 2013

  Actual Average Record
Temperature  
Mean Temperature 80 °F -  
Max Temperature 88 °F 91 °F 98 °F (2011)
Min Temperature 75 °F 70 °F 61 °F (1990)
Cooling Degree Days 16    
Growing Degree Days 30 (Base 50)    
Moisture  
Dew Point 74 °F    
Average Humidity 80    
Maximum Humidity 94    
Minimum Humidity 61    
Precipitation  
Precipitation 0.15 in - - ()
Sea Level Pressure  
Sea Level Pressure 30.03 in    
Wind  
Wind Speed 6 mph (WSW)    
Max Wind Speed 13 mph    
Max Gust Speed 23 mph    
Visibility 9 miles    
Events Rain    
Averages and records for this station are not official NWS values.
T = Trace of Precipitation, MM = Missing Value Source: NWS Daily Summary

Daily Weather History Graph

Daily Weather History Graph

Search for Another Location

Airport or City:

Astronomy

Jun. 15, 2013 Rise Set
Actual Time 6:30 AM EDT 8:25 PM EDT
Civil Twilight 6:03 AM EDT 8:51 PM EDT
Nautical Twilight 5:31 AM EDT 9:24 PM EDT
Astronomical Twilight 4:56 AM EDT 9:58 PM EDT
Moon 12:34 PM EDT (6/15) 12:26 AM EDT (6/15)
Length of Visible Light 14h 48m
Length of Day
13h 54m
Waxing Crescent, 39% of the Moon is Illuminated
Jun 15
Waxing Crescent
Jun 16
First Quarter
Jun 23
Full
Jun 30
Last Quarter
Jul 8
New

Hourly Weather History & Observations

Time (EDT) Temp. Heat Index Dew Point Humidity Pressure Visibility Wind Dir Wind Speed Gust Speed Precip Events Conditions
12:53 AM 78.1 °F - 72.0 °F 81% 29.96 in 10.0 mi WSW 6.9 mph - N/A   Clear
1:53 AM 77.0 °F - 73.0 °F 88% 29.96 in 10.0 mi SW 3.5 mph - N/A   Clear
2:53 AM 77.0 °F - 73.0 °F 88% 29.96 in 10.0 mi WSW 3.5 mph - N/A   Clear
3:53 AM 75.9 °F - 73.9 °F 94% 29.94 in 10.0 mi WSW 4.6 mph - N/A   Clear
4:53 AM 75.9 °F - 73.0 °F 91% 29.95 in 9.0 mi SSW 4.6 mph - N/A   Clear
5:53 AM 75.9 °F - 73.9 °F 94% 29.97 in 9.0 mi South 3.5 mph - N/A   Partly Cloudy
6:53 AM 77.0 °F - 73.9 °F 90% 29.99 in 7.0 mi SSW 5.8 mph - N/A   Clear
7:53 AM 79.0 °F - 75.0 °F 88% 30.01 in 9.0 mi SW 3.5 mph - N/A   Mostly Cloudy
8:53 AM 81.0 °F 86.7 °F 75.0 °F 82% 30.02 in 10.0 mi SW 5.8 mph - N/A   Partly Cloudy
9:34 AM 82.9 °F 90.2 °F 75.0 °F 77% 30.03 in 10.0 mi West 8.1 mph - N/A   Mostly Cloudy
9:53 AM 82.0 °F 88.6 °F 75.0 °F 79% 30.03 in 10.0 mi WSW 6.9 mph - N/A   Overcast
10:17 AM 84.0 °F 91.9 °F 75.0 °F 74% 30.03 in 10.0 mi West 3.5 mph - N/A   Scattered Clouds
10:53 AM 84.0 °F 91.2 °F 73.9 °F 72% 30.04 in 10.0 mi West 5.8 mph - N/A   Mostly Cloudy
11:02 AM 86.0 °F 93.8 °F 73.9 °F 67% 30.05 in 10.0 mi West 6.9 mph - N/A   Mostly Cloudy
11:34 AM 84.9 °F 91.4 °F 73.0 °F 67% 30.05 in 10.0 mi West 5.8 mph - N/A   Mostly Cloudy
11:42 AM 84.9 °F 91.4 °F 73.0 °F 67% 30.05 in 10.0 mi West 3.5 mph - N/A   Mostly Cloudy
11:53 AM 86.0 °F 93.0 °F 73.0 °F 65% 30.04 in 10.0 mi WNW 5.8 mph - N/A   Overcast
12:53 PM 86.0 °F 93.8 °F 73.9 °F 67% 30.04 in 10.0 mi East 5.8 mph - N/A   Overcast
1:11 PM 82.9 °F 90.2 °F 75.0 °F 77% 30.06 in 6.0 mi SW 5.8 mph - N/A   Haze
1:36 PM 78.1 °F - 73.9 °F 87% 30.06 in 2.5 mi WNW 9.2 mph - 0.07 in Rain Rain
1:39 PM 78.1 °F - 75.0 °F 90% 30.05 in 1.8 mi NW 10.4 mph - 0.09 in Rain Heavy Rain
1:49 PM 78.8 °F - 73.4 °F 83% 30.04 in 2.5 mi NW 5.8 mph - 0.14 in Rain Rain
1:53 PM 78.1 °F - 73.9 °F 87% 30.04 in 4.0 mi WNW 5.8 mph - 0.14 in Rain Light Rain
2:53 PM 84.9 °F 90.7 °F 72.0 °F 65% 30.03 in 10.0 mi Calm Calm - 0.01 in   Partly Cloudy
3:53 PM 86.0 °F 92.2 °F 72.0 °F 63% 30.01 in 10.0 mi Calm Calm - N/A   Clear
4:53 PM 86.0 °F 91.5 °F 71.1 °F 61% 30.00 in 10.0 mi NNE 3.5 mph - N/A   Partly Cloudy
5:53 PM 81.0 °F 86.2 °F 73.9 °F 79% 30.03 in 10.0 mi ENE 12.7 mph 23.0 mph N/A   Mostly Cloudy
6:53 PM 80.1 °F 84.5 °F 73.9 °F 81% 30.04 in 10.0 mi ENE 8.1 mph - N/A   Scattered Clouds
7:53 PM 80.1 °F 84.2 °F 73.0 °F 79% 30.06 in 10.0 mi ENE 8.1 mph - N/A   Mostly Cloudy
8:53 PM 79.0 °F - 73.9 °F 84% 30.05 in 10.0 mi ENE 6.9 mph - N/A   Clear
9:15 PM 79.0 °F - 73.9 °F 84% 30.06 in 10.0 mi East 8.1 mph - N/A   Mostly Cloudy
9:43 PM 79.0 °F - 73.0 °F 82% 30.07 in 10.0 mi East 11.5 mph - N/A   Overcast
9:53 PM 79.0 °F - 73.0 °F 82% 30.06 in 10.0 mi ENE 12.7 mph - N/A   Mostly Cloudy
10:53 PM 78.1 °F - 73.0 °F 84% 30.08 in 10.0 mi East 10.4 mph - N/A   Mostly Cloudy
11:24 PM 78.1 °F - 73.0 °F 84% 30.08 in 10.0 mi East 11.5 mph - N/A   Mostly Cloudy
11:53 PM 78.1 °F - 73.0 °F 84% 30.09 in 10.0 mi East 9.2 mph - N/A   Partly Cloudy